{"data":{"norad_id":56003,"epoch":"2026-05-24T23:27:23.591232Z","epoch_age_seconds":83830,"freshness":"FRESH","line1":"1 56003U 23042T   26144.97735638  .00000334  00000+0  21655-4 0  9992","line2":"2 56003  43.0040 349.0223 0001794 246.5987 113.4677 15.27576098174531","mean_motion":15.27576098,"eccentricity":0.0001794,"inclination_deg":43.004,"raan_deg":349.0223,"arg_perigee_deg":246.5987,"mean_anomaly_deg":113.4677,"bstar":2.1655e-5,"rev_number":17453,"period_min":94.266989506142,"perigee_km":481.82988117452,"apogee_km":484.291678938,"semimajor_km":6861.1977800563,"source":"CELESTRAK","updated_at":"2026-05-25T13:38:17.924832Z"}}